User: anonymous   Login
Location: Starry Hill Observatory
(46.8582°N, 122.3590°W)
Time: 21:25:14
(UTC-08:00)
Language:

Cosmos 1300 Rocket - Orbit

View from above orbital plane
View from above orbital plane
View from above satellite
View from above satellite

Ground track
Ground track

The orbit data is extracted from the following two-line orbital elements,

1 12786U 81082B   17056.59246735  .00000130  00000-0  12570-4 0  9996
2 12786  82.4860  72.8839 0016017 262.7894  97.1501 14.84668182918250
Epoch (UTC): 25 February 2017 14:13:09
Eccentricity: 0.0016017
inclination: 82.4860°
perigee height: 603 km
apogee height: 626 km
right ascension of ascending node: 72.8839°
argument of perigee: 262.7894°
revolutions per day: 14.84668182
mean anomaly at epoch: 97.1501°
orbit number at epoch: 91825

The dashed part of the orbit path shows where the satellite is in the earth's shadow,  

DLR